COSMOS 510

Satellite information

Favourite Embed

Satellite Type and Status

PAYLOADIN ORBIT

Key statistics

Satellite COSMOS 510 at a glance.

Uptime

19464

Days in orbit

Revolutions

≈ 12.4

Per day

Orbit

LEO

Low Earth Orbit

Inclination

74.0

Latest

Satellite identification and parameters

Extended collection of information and parameters for COSMOS 510.

Object identification

Identified? True

Debris? False

Object name: COSMOS 510

International designator: 1972-057G

Object number (NORAD): 6123

Object ID (CCSDS): 6123

Country: COMMONWEALTH OF INDEPENDENT STATES (CIS)

Current information (Y/N): Y

RCS size: MEDIUM

Orbital parameters

Period: 116.029 minutes

Inclination: 74.0299 deg

SMA: 7880.204 km

Apoapsis: 1509.824 km

Periapsis: 1494.314 km

RAAN: 349.0936 deg

Eccentricy: 0.0009841

Argument of periapsis: 290.0284 deg

Mean anomaly: 224.6407 deg

Mean motion: 12.41070797 rev/day

Mean motion (dot): 0.00000006 rev/day2

B* drag term: 0.00015613656 1/REarth

Two-line elements (TLE)

Creation date: Nov. 1, 2025, 7:40 p.m.

Reference frame: TEME

Reference center: EARTH

Epoch: Nov. 1, 2025, 2:07 p.m. UTC

TLE line 0: 0 COSMOS 510

TLE line 1: 1 06123U 72057G 25305.58839826 .00000006 00000-0 15614-3 0 9993

TLE line 2: 2 06123 74.0299 349.0936 0009841 290.0284 224.6407 12.41070797414075

Live tracking on map

Real-time ground track for satellite COSMOS 510.

In-orbit conjunctions

There are no conjunctions computed for COSMOS 510, at the moment. Check back to stay up to date, as we update our databases every day.

Go to all conjunctions

Associated space launch

Military communications satellites

COSMOS 510 was lifted into orbit during the mission ‘Kosmos-3M | Strela-1M 25-32’, on board a Kosmos-3M space rocket.

The launch took place on July 20, 1972, 6:10 p.m. from 132/2.

For more information about the launch, click the button.

Launch to space Kosmos-3M | Strela-1M 25-32
Kosmos-3M | Strela-1M 25-32

Agency: N/A

Status: Launch Successful

Launch date: July 20, 1972, 6:10 p.m. UTC

Rocket: Kosmos-3M

Launch pad: 132/2

Location: Plesetsk Cosmodrome, Russian Federation

...

Latest news about this satellite

There are no fresh news available about this satellite. Check back as we update our databases every day.


Newsletter sign-up

Weekly statistics, charts and insights to help you stay on top of the space industry.